Preview of NWS' New Version of Forecast
This preview is not operational and should not be used for support decisions.

Regional Weather Roundup (RWR)

Issued by National Weather Service (NWS)

                            
000
ASUS44 KJAN 171210
RWRMS 

MISSISSIPPI HOURLY WEATHER ROUNDUP
NATIONAL WEATHER SERVICE JACKSON MS
700 AM CDT WED APR 17 2019

NOTE: "FAIR: INDICATES FEW OR NO CLOUDS BELOW 12,000 FEET WITH NO
SIGNIFICANT WEATHER AND/OR OBSTRUCTIONS TO VISIBILITY.

MSZ001>002-007>008-010>013-018>021-025>028-034>036-171300-
NORTHWEST MISSISSIPPI
  
CITY           SKY/WX    TMP DP  RH WIND       PRES   REMARKS
BATESVILLE       N/A     59  55  88 CALM      30.06R                  
CLARKSDALE     MOCLDY    61  61 100 CALM      30.04R                  
CLEVELAND      PTSUNNY   61  59  92 SE6       30.03R                  
GREENWOOD      FAIR      61  56  83 SE7       30.04R                  
6HR MIN TEMP:  59; 6HR MAX TEMP:  63;                                

GREENVILLE     CLOUDY    61  57  87 SE6       30.02R                  
6HR MIN TEMP:  60; 6HR MAX TEMP:  63;                                

OLIVE BRANCH   CLOUDY    57  57 100 CALM      30.05R                  
OXFORD         FAIR      59  54  82 S6        30.08R                  
TUNICA           N/A     59  54  82 S7        30.05R                  
WINONA         FAIR      56  56  99 CALM      30.06R                  
$$

MSZ003>006-009-014>017-022>024-029>033-037>039-171300-
NORTHEAST MISSISSIPPI
  
CITY           SKY/WX    TMP DP  RH WIND       PRES   REMARKS
ABERDEEN       FAIR      55  55 100 CALM      30.10R                  
COLUMBUS AFB   FAIR      55  53  91 SE5       30.09R                  
6HR MIN TEMP:  54; 6HR MAX TEMP:  58;                                

CORINTH        FAIR      59  52  77 SE5       30.07R                  
GOLDN TRIANGLE FAIR      59  55  87 SE6       30.10R                  
STARKVILLE     FAIR      55  54  94 CALM      30.09S                  
TUPELO         FAIR      58  52  80 CALM      30.08R                  
6HR MIN TEMP:  57; 6HR MAX TEMP:  63;                                

$$

MSZ040-058-171300-
CENTRAL MISSISSIPPI
  
CITY           SKY/WX    TMP DP  RH WIND       PRES   REMARKS
JACKSON INTL   MOCLDY    59  56  89 SE7       30.05S                  
6HR MIN TEMP:  58; 6HR MAX TEMP:  62;                                

JACKSON HAWKNS FAIR      60  58  92 SE7       30.05R                  
6HR MIN TEMP:  58; 6HR MAX TEMP:  63;                                

MADISON        FAIR      59  59 100 CALM      30.05R                  
MERIDIAN KEY   FAIR      57  54  89 CALM      30.09R                  
6HR MIN TEMP:  57; 6HR MAX TEMP:  58;                                

MERIDIAN NAS   CLOUDY    56  54  93 E3        30.10R                  
6HR MIN TEMP:  56; 6HR MAX TEMP:  62;                                

RAYMOND        FAIR      59  59 100 SE5       30.04R                  
VICKSBURG VKS  MOSUNNY   61  59  94 SE6       30.03R                  
$$

MSZ059>079-171300-
SOUTH MISSISSIPPI
  
CITY           SKY/WX    TMP DP  RH WIND       PRES   REMARKS
HATTIESBURG    FAIR      54  52  93 CALM      30.08R                  
6HR MIN TEMP:  54; 6HR MAX TEMP:  60;                                

LAUREL         SUNNY     56  55  96 CALM      30.09R                  
MCCOMB         FAIR      58  55  90 SE5       30.04R                  
6HR MIN TEMP:  58; 6HR MAX TEMP:  61;                                

NATCHEZ        FAIR      61  59  93 S9        30.03R                  
6HR MIN TEMP:  60; 6HR MAX TEMP:  63;                                

PINE BELT      FAIR      54  53  97 CALM      30.09R                  
6HR MIN TEMP:  53; 6HR MAX TEMP:  59;                                

$$

MSZ080>082-171300-
COASTAL MISSISSIPPI
  
CITY           SKY/WX    TMP DP  RH WIND       PRES   REMARKS
BAY ST LOUIS   PTCLDY    66  57  72 CALM      30.06                   
BILOXI         FAIR      68  61  77 S10       30.06R                  
6HR MIN TEMP:  67; 6HR MAX TEMP:  68;                                

PASCAGOULA     FAIR      56  53  90 CALM      30.07R                  
6HR MIN TEMP:  54; 6HR MAX TEMP:  57;                                

GULFPORT       FAIR      68  61  78 S7        30.05R                  
6HR MIN TEMP:  67; 6HR MAX TEMP:  68;                                

$$

LAZ007>009-015>016-023>026-171300-
NORTHEAST LOUISIANA
  
CITY           SKY/WX    TMP DP  RH WIND       PRES   REMARKS
BASTROP        FAIR      60  59  98 CALM      30.02R                  
TALLULAH/VBURG FAIR      60  57  89 SE6       30.03R                  
6HR MIN TEMP:  59; 6HR MAX TEMP:  65;                                

VIDALIA        FAIR      62  59  93 SE9       30.01S                  
$$